Language: 


Des rapports , des résumés tant et plus, au choix de chacun....


Données Historiques de Météogheer
Journalier Rapport pour Février 26, 2018 Unitée:  Impériale    Métrique   Les deux
Suivant Jour »
Journalier Hebdomadaire Mensuel Annuel Sur mesure
  Max: Min: Moyenne:
Température: 35.1 °F 23.9 °F 28 °F
Point de rosée: 19.4 °F 10.4 °F 14 °F
Humidité: 79% 42% 58%
Vent: 22.6mph 3.8mph 10.3mph
Rafales: 22.6mph - -
Vent- - NE
Pression: 30.4 in 30.3 in -
Pluie: 0 in    
Historical Graphs
 
 
Données tabulaires pour Février 26, 2018
Heure Température Point de rosée Pression Vent Vent Rafales Humidité Pluie Taux (Horaire) Conditions
00:00 27.9 °F 10.4 °F 30.3 in ENE 8.5 mph 8.5 mph 51% 0 in
00:05 27.9 °F 10.4 °F 30.3 in ENE 8.5 mph 8.5 mph 51% 0 in
00:10 27.9 °F 10.4 °F 30.3 in ENE 8.5 mph 8.5 mph 51% 0 in
00:15 27.9 °F 12.2 °F 30.3 in ENE 10.1 mph 10.1 mph 52% 0 in
00:20 27.7 °F 12.2 °F 30.3 in ENE 10.1 mph 10.1 mph 52% 0 in
00:25 27.7 °F 12.2 °F 30.3 in ENE 10.1 mph 10.1 mph 52% 0 in
00:30 27.5 °F 10.4 °F 30.3 in ENE 10.1 mph 10.1 mph 52% 0 in
00:35 27.5 °F 10.4 °F 30.3 in NE 11 mph 11 mph 52% 0 in
00:40 27.5 °F 12.2 °F 30.3 in NE 11 mph 11 mph 53% 0 in
00:45 27.5 °F 12.2 °F 30.3 in NE 11 mph 11 mph 53% 0 in
00:50 27.3 °F 12.2 °F 30.3 in NE 11 mph 11 mph 53% 0 in
00:56 27.1 °F 12.2 °F 30.3 in NE 11 mph 11 mph 54% 0 in
01:01 27 °F 12.2 °F 30.3 in NE 11 mph 11 mph 54% 0 in
01:06 27 °F 12.2 °F 30.3 in ENE 8.5 mph 8.5 mph 55% 0 in
01:11 27 °F 12.2 °F 30.3 in ENE 8.5 mph 8.5 mph 55% 0 in
01:16 27 °F 12.2 °F 30.3 in North 12.5 mph 12.5 mph 55% 0 in
01:21 27 °F 12.2 °F 30.3 in North 12.5 mph 12.5 mph 55% 0 in
01:26 26.8 °F 12.2 °F 30.3 in NNE 7.4 mph 12.5 mph 56% 0 in
01:31 26.6 °F 12.2 °F 30.3 in NNE 7.4 mph 12.5 mph 57% 0 in
01:36 26.8 °F 12.2 °F 30.3 in NNE 7.4 mph 7.4 mph 57% 0 in
01:41 26.6 °F 12.2 °F 30.3 in NNE 7.4 mph 7.4 mph 57% 0 in
01:46 26.4 °F 12.2 °F 30.3 in NNE 7.4 mph 7.4 mph 57% 0 in
01:51 26.4 °F 12.2 °F 30.3 in ENE 7.6 mph 8.1 mph 57% 0 in
01:56 26.4 °F 12.2 °F 30.3 in ENE 7.6 mph 8.1 mph 57% 0 in
02:01 26.4 °F 12.2 °F 30.3 in ENE 7.6 mph 7.6 mph 57% 0 in
02:06 26.4 °F 12.2 °F 30.3 in ENE 7.6 mph 7.6 mph 58% 0 in
02:11 26.2 °F 12.2 °F 30.3 in ENE 7.6 mph 7.6 mph 58% 0 in
02:16 26.4 °F 12.2 °F 30.3 in ENE 7.6 mph 7.6 mph 58% 0 in
02:21 26.4 °F 12.2 °F 30.3 in ENE 7.6 mph 7.6 mph 58% 0 in
02:26 26.2 °F 12.2 °F 30.3 in ENE 7.6 mph 7.6 mph 58% 0 in
02:31 26.2 °F 12.2 °F 30.3 in NE 10.5 mph 10.5 mph 58% 0 in
02:36 26.1 °F 12.2 °F 30.3 in NE 7.8 mph 10.5 mph 58% 0 in
02:41 26.1 °F 12.2 °F 30.3 in NE 7.8 mph 10.5 mph 59% 0 in
02:46 26.1 °F 12.2 °F 30.3 in NE 8.1 mph 10.5 mph 59% 0 in
02:51 26.1 °F 12.2 °F 30.3 in ENE 15.7 mph 15.7 mph 59% 0 in
02:56 26.1 °F 12.2 °F 30.3 in ENE 15.7 mph 15.7 mph 59% 0 in
03:01 26.1 °F 12.2 °F 30.3 in ENE 15.7 mph 15.7 mph 59% 0 in
03:07 25.9 °F 14 °F 30.3 in NE 7.6 mph 15.7 mph 60% 0 in
03:12 25.7 °F 12.2 °F 30.3 in ENE 7.6 mph 15.7 mph 60% 0 in
03:17 25.7 °F 12.2 °F 30.3 in ENE 7.6 mph 8.5 mph 61% 0 in
03:22 25.5 °F 14 °F 30.3 in ENE 7.6 mph 7.6 mph 62% 0 in
03:27 25.5 °F 14 °F 30.3 in ENE 11 mph 11 mph 62% 0 in
03:32 25.5 °F 14 °F 30.3 in NE 8.1 mph 11 mph 62% 0 in
03:37 25.7 °F 12.2 °F 30.3 in NE 8.1 mph 11 mph 61% 0 in
03:42 25.7 °F 12.2 °F 30.3 in NE 8.1 mph 8.1 mph 61% 0 in
03:47 25.5 °F 12.2 °F 30.3 in NE 10.1 mph 10.1 mph 61% 0 in
03:52 25.5 °F 14 °F 30.3 in NNE 9.6 mph 10.1 mph 62% 0 in
03:57 25.3 °F 14 °F 30.3 in NNE 9.6 mph 10.1 mph 62% 0 in
04:02 25.3 °F 14 °F 30.3 in NNE 9.6 mph 9.6 mph 62% 0 in
04:07 25.3 °F 14 °F 30.3 in ENE 7.6 mph 10.5 mph 62% 0 in
04:12 25.3 °F 14 °F 30.3 in NE 12.8 mph 12.8 mph 63% 0 in
04:17 25.3 °F 14 °F 30.3 in NE 8.5 mph 12.8 mph 63% 0 in
04:22 25.2 °F 14 °F 30.3 in NE 9.8 mph 12.8 mph 63% 0 in
04:27 25.2 °F 14 °F 30.3 in NE 9.8 mph 9.8 mph 64% 0 in
04:32 25 °F 14 °F 30.3 in NE 9.8 mph 9.8 mph 64% 0 in
04:37 25 °F 14 °F 30.3 in NE 9.8 mph 9.8 mph 65% 0 in
04:42 25.2 °F 14 °F 30.3 in NE 9.8 mph 9.8 mph 65% 0 in
04:47 25 °F 14 °F 30.3 in NE 9.8 mph 9.8 mph 65% 0 in
04:52 25 °F 14 °F 30.3 in NE 9.8 mph 9.8 mph 66% 0 in
04:57 25 °F 14 °F 30.3 in ENE 8.1 mph 8.1 mph 66% 0 in
05:02 24.8 °F 14 °F 30.3 in ENE 6.9 mph 10.7 mph 67% 0 in
05:07 24.8 °F 14 °F 30.3 in ENE 10.5 mph 10.7 mph 67% 0 in
05:12 24.8 °F 14 °F 30.3 in NE 15.9 mph 15.9 mph 68% 0 in
05:17 24.8 °F 14 °F 30.3 in ENE 8.7 mph 15.9 mph 68% 0 in
05:22 24.6 °F 14 °F 30.3 in NNE 7.8 mph 15.9 mph 69% 0 in
05:27 24.6 °F 14 °F 30.3 in NE 10.1 mph 10.1 mph 69% 0 in
05:32 24.4 °F 14 °F 30.3 in NNE 8.7 mph 10.7 mph 69% 0 in
05:37 24.4 °F 15.8 °F 30.3 in ENE 7.8 mph 10.7 mph 70% 0 in
05:43 24.4 °F 15.8 °F 30.3 in ENE 7.8 mph 8.7 mph 70% 0 in
05:48 24.4 °F 15.8 °F 30.3 in ENE 7.8 mph 7.8 mph 71% 0 in
05:53 24.4 °F 15.8 °F 30.3 in ENE 7.8 mph 7.8 mph 71% 0 in
05:58 24.4 °F 15.8 °F 30.3 in NNE 7.6 mph 8.5 mph 71% 0 in
06:03 24.4 °F 15.8 °F 30.3 in NE 9.8 mph 9.8 mph 71% 0 in
06:08 24.4 °F 15.8 °F 30.3 in NE 9.8 mph 9.8 mph 71% 0 in
06:13 24.4 °F 15.8 °F 30.3 in NE 9.8 mph 9.8 mph 72% 0 in
06:18 24.3 °F 15.8 °F 30.3 in NE 9.8 mph 9.8 mph 72% 0 in
06:23 24.3 °F 15.8 °F 30.3 in NE 6.7 mph 9.8 mph 72% 0 in
06:28 24.3 °F 15.8 °F 30.3 in NE 8.7 mph 9.2 mph 72% 0 in
06:33 24.3 °F 15.8 °F 30.3 in NE 8.7 mph 8.7 mph 72% 0 in
06:38 24.3 °F 15.8 °F 30.3 in NE 10.5 mph 11 mph 73% 0 in
06:43 24.4 °F 15.8 °F 30.3 in NE 12.3 mph 12.3 mph 73% 0 in
06:48 24.4 °F 15.8 °F 30.3 in ENE 8.5 mph 12.3 mph 73% 0 in
06:53 24.3 °F 15.8 °F 30.3 in ENE 8.5 mph 12.3 mph 73% 0 in
06:58 24.3 °F 15.8 °F 30.3 in ENE 14.8 mph 14.8 mph 74% 0 in
07:03 24.4 °F 15.8 °F 30.3 in ENE 14.8 mph 14.8 mph 74% 0 in
07:08 24.4 °F 15.8 °F 30.3 in ENE 14.8 mph 14.8 mph 74% 0 in
07:13 24.4 °F 17.6 °F 30.3 in ENE 14.8 mph 14.8 mph 75% 0 in
07:19 24.4 °F 17.6 °F 30.3 in ENE 14.8 mph 14.8 mph 75% 0 in
07:24 24.3 °F 15.8 °F 30.3 in NNE 10.3 mph 10.3 mph 75% 0 in
07:29 24.1 °F 15.8 °F 30.3 in NNE 10.3 mph 10.3 mph 75% 0 in
07:34 24.1 °F 15.8 °F 30.3 in NNE 10.3 mph 10.3 mph 76% 0 in
07:39 23.9 °F 15.8 °F 30.3 in NNE 10.3 mph 10.3 mph 76% 0 in
07:44 23.9 °F 15.8 °F 30.4 in NE 9.8 mph 10.3 mph 77% 0 in
07:49 23.9 °F 15.8 °F 30.4 in NE 9.8 mph 9.8 mph 77% 0 in
07:54 23.9 °F 15.8 °F 30.4 in NNE 10.1 mph 11 mph 78% 0 in
07:59 23.9 °F 15.8 °F 30.4 in NNE 10.3 mph 11 mph 78% 0 in
08:04 23.9 °F 17.6 °F 30.4 in NE 8.7 mph 12.5 mph 79% 0 in
08:09 24.1 °F 17.6 °F 30.4 in NE 11.4 mph 12.5 mph 79% 0 in
08:14 24.3 °F 17.6 °F 30.4 in NE 8.1 mph 11.4 mph 79% 0 in
08:19 24.4 °F 17.6 °F 30.4 in NE 5.6 mph 11.4 mph 79% 0 in
08:24 24.6 °F 17.6 °F 30.4 in ENE 8.7 mph 12.3 mph 79% 0 in
08:29 24.6 °F 17.6 °F 30.4 in ENE 12.1 mph 13.2 mph 79% 0 in
08:35 25 °F 17.6 °F 30.4 in NE 12.3 mph 13.2 mph 78% 0 in
08:40 25.2 °F 19.4 °F 30.4 in ENE 10.5 mph 13.2 mph 78% 0 in
08:45 25.3 °F 19.4 °F 30.4 in NE 9.8 mph 15.4 mph 77% 0 in
08:50 25.3 °F 17.6 °F 30.4 in ENE 11.2 mph 15.4 mph 76% 0 in
08:55 25.7 °F 17.6 °F 30.4 in NNE 10.3 mph 13.9 mph 76% 0 in
09:00 25.9 °F 19.4 °F 30.4 in ENE 13.4 mph 15.2 mph 75% 0 in
09:05 26.1 °F 19.4 °F 30.4 in NE 10.5 mph 15.2 mph 75% 0 in
09:10 26.2 °F 17.6 °F 30.4 in ENE 10.7 mph 15.2 mph 74% 0 in
09:15 26.6 °F 19.4 °F 30.4 in East 8.7 mph 14.1 mph 74% 0 in
09:20 26.6 °F 17.6 °F 30.4 in East 8.1 mph 13 mph 73% 0 in
09:25 27 °F 17.6 °F 30.4 in NE 10.3 mph 12.8 mph 72% 0 in
09:30 27 °F 17.6 °F 30.4 in NNE 10.3 mph 13.2 mph 72% 0 in
09:36 27.3 °F 19.4 °F 30.4 in ENE 11 mph 13.2 mph 72% 0 in
09:41 27.3 °F 17.6 °F 30.4 in NE 8.5 mph 15.2 mph 71% 0 in
09:46 27.7 °F 19.4 °F 30.4 in ENE 11 mph 15.2 mph 71% 0 in
09:51 27.9 °F 17.6 °F 30.4 in NE 13.2 mph 17.2 mph 69% 0 in
09:56 27.9 °F 17.6 °F 30.4 in NE 12.5 mph 17.2 mph 69% 0 in
10:01 28.2 °F 17.6 °F 30.4 in ENE 10.3 mph 13.9 mph 68% 0 in
10:06 28.6 °F 17.6 °F 30.4 in NE 7.4 mph 17 mph 66% 0 in
10:11 28.6 °F 17.6 °F 30.4 in East 12.8 mph 17 mph 66% 0 in
10:16 28.9 °F 17.6 °F 30.4 in ENE 10.3 mph 14.5 mph 66% 0 in
10:21 29.3 °F 17.6 °F 30.4 in East 9.8 mph 14.5 mph 65% 0 in
10:26 29.7 °F 17.6 °F 30.4 in NE 6 mph 13 mph 64% 0 in
10:31 29.7 °F 17.6 °F 30.4 in ENE 8.7 mph 13 mph 64% 0 in
10:36 29.5 °F 17.6 °F 30.4 in NE 13 mph 13.9 mph 62% 0 in
10:41 29.3 °F 15.8 °F 30.4 in NE 7.8 mph 13.9 mph 62% 0 in
10:46 29.3 °F 15.8 °F 30.4 in ENE 10.7 mph 12.3 mph 62% 0 in
10:51 28.8 °F 15.8 °F 30.4 in ENE 8.1 mph 14.8 mph 62% 0 in
10:56 28.8 °F 15.8 °F 30.4 in NE 6 mph 14.8 mph 62% 0 in
11:01 28.6 °F 15.8 °F 30.4 in NE 8.9 mph 12.3 mph 63% 0 in
11:06 28.4 °F 15.8 °F 30.4 in ENE 10.5 mph 12.3 mph 63% 0 in
11:11 28.4 °F 15.8 °F 30.4 in ENE 10.3 mph 13 mph 63% 0 in
11:16 28.6 °F 15.8 °F 30.4 in NE 10.5 mph 13.4 mph 63% 0 in
11:21 28.8 °F 15.8 °F 30.4 in NE 7.8 mph 14.5 mph 62% 0 in
11:26 29.1 °F 15.8 °F 30.4 in ENE 7.4 mph 14.5 mph 61% 0 in
11:31 30.2 °F 17.6 °F 30.4 in NE 7.8 mph 13.9 mph 63% 0 in
11:36 29.8 °F 15.8 °F 30.4 in ENE 10.1 mph 14.8 mph 59% 0 in
11:41 29.5 °F 15.8 °F 30.4 in NE 9.6 mph 14.8 mph 57% 0 in
11:46 29.5 °F 15.8 °F 30.4 in NNE 10.7 mph 12.3 mph 57% 0 in
11:51 29.5 °F 15.8 °F 30.4 in NNE 6 mph 12.3 mph 58% 0 in
11:56 29.5 °F 15.8 °F 30.4 in NE 8.9 mph 15.2 mph 58% 0 in
12:02 29.5 °F 15.8 °F 30.4 in NE 9.8 mph 15.2 mph 57% 0 in
12:07 30.2 °F 15.8 °F 30.4 in NE 8.1 mph 10.3 mph 58% 0 in
12:12 30.2 °F 15.8 °F 30.4 in NNE 7.6 mph 13 mph 56% 0 in
12:17 29.7 °F 14 °F 30.4 in East 10.3 mph 13 mph 55% 0 in
12:22 30.2 °F 14 °F 30.4 in NNE 9.8 mph 11.4 mph 55% 0 in
12:27 30.2 °F 14 °F 30.4 in NE 10.7 mph 13 mph 54% 0 in
12:32 30.2 °F 14 °F 30.4 in ENE 7.6 mph 14.8 mph 54% 0 in
12:37 31.1 °F 14 °F 30.4 in NNE 17.4 mph 19.5 mph 53% 0 in
12:42 31.6 °F 15.8 °F 30.4 in NNE 13.2 mph 20.1 mph 52% 0 in
12:47 31.5 °F 14 °F 30.3 in NE 11 mph 21 mph 50% 0 in
12:52 30.9 °F 12.2 °F 30.3 in ENE 10.3 mph 21 mph 49% 0 in
12:57 32.2 °F 17.6 °F 30.3 in NE 9.6 mph 16.1 mph 52% 0 in
13:02 33.1 °F 17.6 °F 30.4 in NE 15.9 mph 19.9 mph 51% 0 in
13:07 32.4 °F 15.8 °F 30.4 in ENE 13 mph 19.9 mph 50% 0 in
13:12 31.3 °F 14 °F 30.4 in ENE 11.2 mph 19.7 mph 50% 0 in
13:17 31.5 °F 14 °F 30.3 in NE 10.1 mph 17.2 mph 51% 0 in
13:22 31.5 °F 14 °F 30.3 in ENE 12.5 mph 17 mph 50% 0 in
13:27 32.5 °F 15.8 °F 30.3 in East 16.8 mph 19 mph 49% 0 in
13:32 33.3 °F 15.8 °F 30.3 in NE 11.2 mph 19 mph 49% 0 in
13:37 34.2 °F 17.6 °F 30.3 in NE 9.6 mph 16.8 mph 50% 0 in
13:42 34.7 °F 17.6 °F 30.3 in NE 10.7 mph 17.2 mph 48% 0 in
13:47 35.1 °F 17.6 °F 30.3 in ENE 12.5 mph 17.2 mph 48% 0 in
13:52 34.5 °F 15.8 °F 30.3 in NE 13.2 mph 17.2 mph 47% 0 in
13:57 33.8 °F 15.8 °F 30.3 in NE 15.4 mph 19.5 mph 45% 0 in
14:02 33.8 °F 15.8 °F 30.3 in NE 10.5 mph 19.7 mph 45% 0 in
14:07 32.7 °F 14 °F 30.3 in ENE 12.8 mph 19.7 mph 44% 0 in
14:12 32.5 °F 14 °F 30.3 in ENE 10.3 mph 15.2 mph 44% 0 in
14:17 32.7 °F 14 °F 30.3 in NE 10.5 mph 16.1 mph 44% 0 in
14:22 33.8 °F 15.8 °F 30.3 in East 11 mph 16.1 mph 45% 0 in
14:28 34.3 °F 15.8 °F 30.3 in NE 12.8 mph 16.1 mph 45% 0 in
14:33 33.4 °F 14 °F 30.3 in NNE 17 mph 17 mph 43% 0 in
14:38 34.2 °F 15.8 °F 30.3 in NE 10.1 mph 19.9 mph 44% 0 in
14:43 34.5 °F 14 °F 30.3 in NE 12.8 mph 19.9 mph 43% 0 in
14:48 34.9 °F 14 °F 30.3 in ENE 10.5 mph 14.8 mph 43% 0 in
14:53 34.5 °F 14 °F 30.3 in NE 17.2 mph 22.4 mph 42% 0 in
14:58 34.3 °F 14 °F 30.3 in NE 17.4 mph 22.4 mph 43% 0 in
15:03 33.3 °F 12.2 °F 30.3 in NE 13.2 mph 17.7 mph 42% 0 in
15:08 32.7 °F 12.2 °F 30.3 in ENE 17.4 mph 20.6 mph 43% 0 in
15:13 33.3 °F 14 °F 30.3 in NE 15.2 mph 20.6 mph 43% 0 in
15:18 33.6 °F 14 °F 30.3 in NNE 14.8 mph 17.4 mph 44% 0 in
15:23 33.4 °F 14 °F 30.3 in NE 12.1 mph 17 mph 43% 0 in
15:28 33.1 °F 14 °F 30.3 in ENE 14.8 mph 14.8 mph 43% 0 in
15:33 33.4 °F 14 °F 30.3 in ESE 11 mph 14.8 mph 42% 0 in
15:38 34 °F 14 °F 30.3 in East 7.8 mph 16.6 mph 42% 0 in
15:43 34.2 °F 14 °F 30.3 in NE 17 mph 17 mph 43% 0 in
15:48 33.1 °F 14 °F 30.3 in NNE 12.8 mph 17 mph 43% 0 in
15:53 32.2 °F 12.2 °F 30.3 in ENE 11.4 mph 19.9 mph 43% 0 in
15:58 32.2 °F 12.2 °F 30.3 in NE 15.2 mph 19.9 mph 43% 0 in
16:03 32.2 °F 12.2 °F 30.3 in NE 14.3 mph 17.7 mph 43% 0 in
16:08 32 °F 10.4 °F 30.3 in ENE 9.4 mph 17.7 mph 43% 0 in
16:13 31.8 °F 10.4 °F 30.3 in NE 22.6 mph 22.6 mph 43% 0 in
16:18 31.6 °F 10.4 °F 30.3 in NE 13.9 mph 22.6 mph 43% 0 in
16:23 31.6 °F 10.4 °F 30.3 in NE 10.7 mph 22.6 mph 43% 0 in
16:28 31.8 °F 10.4 °F 30.3 in NNE 10.7 mph 17 mph 43% 0 in
16:33 32 °F 12.2 °F 30.3 in ENE 12.8 mph 17 mph 44% 0 in
16:38 31.5 °F 10.4 °F 30.3 in NE 12.5 mph 19.5 mph 44% 0 in
16:44 31.3 °F 10.4 °F 30.3 in NNE 13.4 mph 19.5 mph 44% 0 in
16:49 30.9 °F 10.4 °F 30.3 in NE 11.9 mph 17.4 mph 44% 0 in
16:54 30.7 °F 10.4 °F 30.3 in NE 16.6 mph 17 mph 45% 0 in
16:59 30.9 °F 12.2 °F 30.3 in NNE 10.5 mph 17 mph 46% 0 in
17:04 31.1 °F 14 °F 30.3 in NE 10.7 mph 18.8 mph 50% 0 in
17:09 30.6 °F 14 °F 30.3 in NE 12.8 mph 18.8 mph 51% 0 in
17:14 30.6 °F 14 °F 30.3 in NE 13 mph 17.4 mph 51% 0 in
17:19 30.4 °F 14 °F 30.3 in NE 10.1 mph 15.2 mph 52% 0 in
17:24 30.2 °F 14 °F 30.3 in NE 12.3 mph 15.2 mph 52% 0 in
17:29 30.2 °F 14 °F 30.3 in NE 11 mph 12.3 mph 52% 0 in
17:34 30.2 °F 14 °F 30.3 in NNE 9.2 mph 12.3 mph 52% 0 in
17:39 30.2 °F 14 °F 30.3 in ENE 13.9 mph 13.9 mph 52% 0 in
17:44 30.2 °F 12.2 °F 30.3 in NE 14.1 mph 17.9 mph 50% 0 in
17:49 30.4 °F 12.2 °F 30.3 in NNE 11.4 mph 17.9 mph 50% 0 in
17:54 30.2 °F 12.2 °F 30.3 in NE 10.3 mph 17.7 mph 50% 0 in
17:59 30 °F 12.2 °F 30.3 in ENE 10.5 mph 17.7 mph 50% 0 in
18:04 29.7 °F 12.2 °F 30.3 in North 8.7 mph 15.2 mph 51% 0 in
18:09 29.5 °F 12.2 °F 30.3 in NE 14.8 mph 16.1 mph 50% 0 in
18:14 29.5 °F 12.2 °F 30.3 in ENE 10.1 mph 16.1 mph 51% 0 in
18:19 29.5 °F 12.2 °F 30.3 in NE 9.4 mph 16.1 mph 51% 0 in
18:24 29.5 °F 12.2 °F 30.3 in NNE 7.4 mph 14.8 mph 51% 0 in
18:29 29.5 °F 12.2 °F 30.3 in NE 10.5 mph 13.6 mph 51% 0 in
18:34 29.5 °F 12.2 °F 30.3 in NNE 10.7 mph 12.8 mph 51% 0 in
18:39 29.3 °F 12.2 °F 30.3 in NE 12.8 mph 12.8 mph 51% 0 in
18:44 29.3 °F 12.2 °F 30.3 in NE 14.8 mph 14.8 mph 51% 0 in
18:49 29.3 °F 12.2 °F 30.3 in NNE 12.1 mph 16.6 mph 51% 0 in
18:54 29.3 °F 12.2 °F 30.3 in NE 13.2 mph 16.6 mph 51% 0 in
18:59 29.1 °F 12.2 °F 30.3 in NE 9.8 mph 13.2 mph 52% 0 in
19:04 28.9 °F 12.2 °F 30.3 in NE 11 mph 14.1 mph 52% 0 in
19:09 28.8 °F 12.2 °F 30.3 in NNE 7.8 mph 14.1 mph 52% 0 in
19:14 28.6 °F 12.2 °F 30.3 in NNE 9.4 mph 13.9 mph 52% 0 in
19:19 28.6 °F 12.2 °F 30.3 in NE 10.3 mph 13.9 mph 52% 0 in
19:24 28.8 °F 12.2 °F 30.3 in NE 9.2 mph 13.9 mph 52% 0 in
19:29 28.8 °F 12.2 °F 30.3 in ENE 8.5 mph 13.9 mph 52% 0 in
19:34 28.9 °F 12.2 °F 30.3 in ENE 8.5 mph 9.2 mph 51% 0 in
19:39 29.1 °F 12.2 °F 30.3 in NE 12.3 mph 12.3 mph 51% 0 in
19:44 28.9 °F 12.2 °F 30.3 in ENE 12.5 mph 13.2 mph 51% 0 in
19:49 28.8 °F 12.2 °F 30.3 in ENE 14.3 mph 14.3 mph 51% 0 in
19:54 28.6 °F 12.2 °F 30.3 in ENE 11.2 mph 14.3 mph 52% 0 in
19:59 28.6 °F 12.2 °F 30.3 in NE 8.7 mph 17.7 mph 51% 0 in
20:04 28.4 °F 12.2 °F 30.3 in NE 9.8 mph 17.7 mph 52% 0 in
20:09 28.2 °F 12.2 °F 30.3 in NE 10.5 mph 13.2 mph 52% 0 in
20:14 28.2 °F 12.2 °F 30.3 in NE 10.5 mph 14.3 mph 52% 0 in
20:19 28.2 °F 12.2 °F 30.3 in ENE 10.3 mph 14.3 mph 52% 0 in
20:24 28.2 °F 12.2 °F 30.3 in ENE 10.1 mph 12.8 mph 52% 0 in
20:29 28 °F 12.2 °F 30.3 in NE 8.7 mph 13 mph 53% 0 in
20:35 27.9 °F 12.2 °F 30.3 in ENE 8.5 mph 13 mph 53% 0 in
20:40 27.9 °F 12.2 °F 30.3 in NNE 9.8 mph 13 mph 53% 0 in
20:45 27.7 °F 12.2 °F 30.3 in NNE 7.6 mph 12.5 mph 53% 0 in
20:50 27.5 °F 12.2 °F 30.3 in NE 10.1 mph 12.8 mph 53% 0 in
20:55 27.5 °F 12.2 °F 30.3 in NNE 8.7 mph 12.8 mph 54% 0 in
21:00 27.5 °F 12.2 °F 30.3 in NE 10.3 mph 12.3 mph 54% 0 in
21:05 27.3 °F 12.2 °F 30.3 in NE 12.3 mph 15.2 mph 54% 0 in
21:10 27.3 °F 12.2 °F 30.3 in NE 10.3 mph 15.2 mph 54% 0 in
21:15 27.1 °F 12.2 °F 30.3 in NE 10.5 mph 12.8 mph 54% 0 in
21:20 27 °F 12.2 °F 30.3 in NE 12.3 mph 12.3 mph 55% 0 in
21:25 27 °F 12.2 °F 30.3 in NNE 8.5 mph 13 mph 55% 0 in
21:30 26.8 °F 12.2 °F 30.3 in NE 8.9 mph 8.9 mph 55% 0 in
21:35 26.6 °F 12.2 °F 30.3 in NNW 6 mph 12.1 mph 56% 0 in
21:40 26.4 °F 12.2 °F 30.3 in NNE 7.6 mph 12.1 mph 57% 0 in
21:45 26.1 °F 12.2 °F 30.3 in NE 5.4 mph 8.7 mph 58% 0 in
21:50 25.9 °F 12.2 °F 30.3 in NE 8.5 mph 9.4 mph 59% 0 in
21:55 25.7 °F 12.2 °F 30.3 in NE 8.5 mph 10.7 mph 60% 0 in
22:00 25.7 °F 12.2 °F 30.3 in NNE 7.8 mph 10.7 mph 61% 0 in
22:05 25.7 °F 12.2 °F 30.3 in NE 7.6 mph 10.5 mph 61% 0 in
22:11 25.9 °F 14 °F 30.3 in NE 8.1 mph 10.3 mph 61% 0 in
22:16 25.9 °F 14 °F 30.3 in NNE 8.5 mph 10.7 mph 61% 0 in
22:26 25.9 °F 14 °F 30.3 in NE 7.6 mph 10.3 mph 60% 0 in
22:31 25.9 °F 14 °F 30.3 in NE 9.8 mph 10.3 mph 60% 0 in
22:36 25.9 °F 14 °F 30.3 in NE 10.3 mph 10.7 mph 60% 0 in
22:41 25.9 °F 14 °F 30.3 in NE 6.5 mph 10.7 mph 60% 0 in
22:46 25.9 °F 14 °F 30.3 in NNE 8.7 mph 12.5 mph 60% 0 in
22:51 25.9 °F 14 °F 30.3 in NNE 7.8 mph 12.5 mph 60% 0 in
22:56 25.9 °F 14 °F 30.3 in NNE 7.6 mph 10.5 mph 60% 0 in
23:01 25.7 °F 12.2 °F 30.3 in ENE 7.6 mph 10.5 mph 60% 0 in
23:06 25.7 °F 12.2 °F 30.3 in NE 8.1 mph 10.5 mph 60% 0 in
23:11 25.5 °F 12.2 °F 30.3 in NE 8.1 mph 10.3 mph 60% 0 in
23:17 25.3 °F 12.2 °F 30.3 in NNE 4.9 mph 10.3 mph 61% 0 in
23:22 25 °F 12.2 °F 30.3 in NE 5.8 mph 7.6 mph 61% 0 in
23:27 24.8 °F 12.2 °F 30.3 in NNE 6.3 mph 7.8 mph 63% 0 in
23:32 24.6 °F 12.2 °F 30.3 in NE 7.4 mph 8.1 mph 63% 0 in
23:36 24.6 °F 14 °F 30.3 in NE 7.6 mph 8.5 mph 64% 0 in
23:42 24.4 °F 14 °F 30.3 in NNE 6.3 mph 8.5 mph 64% 0 in
23:47 24.3 °F 12.2 °F 30.3 in North 6.3 mph 7.4 mph 64% 0 in
23:52 24.1 °F 14 °F 30.3 in NE 5.8 mph 7.2 mph 65% 0 in
23:57 23.9 °F 12.2 °F 30.3 in NNE 3.8 mph 7.2 mph 65% 0 in
Données Historique de Météo Turbie

Mise a jour : 18/06/2018 01:39:12
Généré par Cumulus 1.9.4 (1099)